634  
ASUS46 KPDT 010425  
RWRPDT  
PENDLETON REGIONAL WEATHER ROUNDUP  
NATIONAL WEATHER SERVICE PENDLETON OREGON  
900 PM PDT FRI OCT 31 2014  
 
NOTE: FAIR INDICATES FEW OR NO CLOUDS BELOW 12,000 FEET WITH NO  
SIGNIFICANT WEATHER AND/OR S TO VISIBILITY
.  
 
# INDICATES UNOFFICIAL STATION AND DATA  
 
WAZ520-010510-  
EAST SLOPES OF WASHINGTON CASCADES  
 
CITY SKY/WX TMP DP RH WIND PRES REMARKS
 
#BULLFROG 2SW N/A 63 39 41 CALM 30.06F  
#CLE ELUM 2NW N/A 44 39 82 SW3 N/A  
#CLE ELUM LAKE N/A N/A N/A N/A SW1 29.79S  
#CLIFFDEL 2NW N/A 40 39 96 CALM N/A  
#MANASTASH CYN N/A 39 36 89 CALM 29.78S  
#RONALD 2NW N/A 44 41 89 CALM 29.70S  
#TEANAWAY 4NE N/A 41 41 100 NE2 N/A  
#TROUT LAKE HS N/A 41 41 100 NW2 N/A  

 
 
WAZ521-010510-  
SIMCOE HIGHLANDS  
 
CITY SKY/WX TMP DP RH WIND PRES REMARKS
 
#CENTERVILLE 4W N/A 44 41 89 NW1 29.57S  
#GOLDENDALE N/A 45 41 86 NW2 N/A  
#GOLDENDALE 5WNWN/A 45 42 89 W2 29.79F  
#GOODNOE HILLS N/A 48 43 83 W7 29.74R  

 
 
WAZ026-010510-  
KITTITAS VALLEY  
 
CITY SKY/WX TMP DP RH WIND PRES REMARKS
 
ELLENSBURG AP CLOUDY 48 39 71 NW9 29.80R  
#ELLENSBURG N/A 49 44 83 NW2 N/A  

 
 
WAZ027-010510-  
YAKIMA VALLEY  
 
CITY SKY/WX TMP DP RH WIND PRES REMARKS
 
SUNNYSIDE AP CLOUDY 46 45 96 CALM 29.79S  
YAKIMA AIRPORT CLOUDY 50 43 77 CALM 29.79F  
YAKIMA-VAGABOND MOCLDY 46 42 86 E5 29.80S  
#DONALD 2NE N/A 49 44 83 CALM 30.11S  
#GRANDVIEW N/A 48 44 86 CALM 29.81R  
#MOXEE 2E N/A 49 43 80 W3 29.77S  
#OUTLOOK DOT N/A N/A N/A N/A CALM N/A  
#SELAH 8E N/A 45 39 79 NW2 N/A  
#WAPATO 4NE N/A 48 44 86 CALM 30.13R  
#W YAKIMA N/A 49 43 80 N1 29.79R  

 
 
WAZ028-010510-  
LOWER COLUMBIA BASIN...WASHINGTON  
 
CITY SKY/WX TMP DP RH WIND PRES REMARKS
 
PASCO MOCLDY 53 45 74 S10 29.80F  
PROSSER AWOS N/A 48 46 93 SW3 29.83R  
RICHLAND AWOS MOCLDY 54 45 71 SW5 29.80S  
#KENNEWICK N/A 63 39 41 CALM 30.06F  

 
 
WAZ029-010510-  
FOOTHILLS OF THE BLUES...WASHINGTON  
 
CITY SKY/WX TMP DP RH WIND PRES REMARKS
 
WALLA WALLA AP CLOUDY 52 44 74 S7 29.82S  
#SUDBURY N/A 52 N/A N/A N3 N/A  
#WHITMAN COLLEGEN/A 52 45 77 SE3 29.86S  
#WAITSBURG 8N N/A 48 35 60 S3 29.76S  

 
 
WAZ030-010510-  
BLUE MOUNTAINS...WASHINGTON  
 
CITY SKY/WX TMP DP RH WIND PRES REMARKS
 

 
 
ORZ009-041-WAZ024-010510-  
COLUMBIA RIVER GORGE  
 
CITY SKY/WX TMP DP RH WIND PRES REMARKS
 
HOOD RIVER AP CLOUDY 45 43 93 CALM 29.85R  
THE DALLES AP CLOUDY 51 45 80 W5 29.83S  
#ARLINGTON AIRPON/A 50 44 80 SW1 29.99S  
#ARLINGTON HS N/A 53 44 71 CALM 29.73R  
#CELILO DOT N/A 52 42 69 SW5 N/A  
#MARYHILL 2W N/A 50 47 89 S2 N/A  
#MOSIER 1S N/A 48 42 80 SW6 29.85S  
#MURDOCK N/A 54 50 86 W3 29.84S  
#RUFUS DOT N/A N/A N/A N/A N13 N/A  
 

 
 
ORZ510-010510-  
NORTH CENTRAL OREGON  
 
CITY SKY/WX TMP DP RH WIND PRES REMARKS
 
#COW CYN RST AREN/A 43 38 82 N3 N/A  
#GRASS VALLEY N/A 43 40 89 CALM N/A  
#KENT DOT N/A 42 37 82 NE2 N/A  
#SHANIKO 5WSW N/A 40 34 79 NW3 N/A  
#WASCO DOT N/A 46 42 86 W3 N/A  

 
 
ORZ511-010510-  
CENTRAL OREGON  
 
CITY SKY/WX TMP DP RH WIND PRES REMARKS
 
BEND AIRPORT CLOUDY 43 36 76 NW5 29.81F  
MADRAS AIRPORT MOCLDY 43 39 86 CALM 29.84S  
PRINEVILLE AP CLOUDY 45 39 79 CALM 29.80F  
REDMOND AIRPORT CLOUDY 44 37 76 N3 29.80F  
#BEND 6E N/A 43 34 70 CALM 29.77S  
#BEND 1SW N/A 42 39 89 CALM N/A  
#LAKE BILLY CHINN/A 45 34 65 CALM 29.90F  
#POWELL BUTTE 3EN/A 45 40 82 W2 N/A  
#POWELL BUTTE N/A 44 38 79 SW1 29.44F  
#PRINEVILLE 3N N/A 46 40 79 CALM 29.75F  
 
 
ORZ509-010510-  
EAST SLOPES OF OREGON CASCADES  
 
CITY SKY/WX TMP DP RH WIND PRES REMARKS
 
#BLUE BOX PASS N/A 36 -12 12 NW2 N/A  
#LA PINE DOT N/A 39 37 92 NW2 N/A  
#LAVA BUTTE DOT N/A 37 35 92 CALM N/A  
#SISTERS ODOT N/A 40 N/A N/A CALM N/A  
#SISTERS 3N N/A 40 34 79 CALM 29.83S  
#SUNRIVER N/A 39 38 96 CALM 29.67F  
#SUTTLE LK DOT N/A 31 31 100 W13 N/A WCI 21  
#WANOGA BUTTE D N/A 31 31 100 NE2 N/A  
 

 
 
ORZ044-010510-  
LOWER COLUMBIA BASIN...OREGON  
 
CITY SKY/WX TMP DP RH WIND PRES REMARKS
 
HERMISTON CLOUDY 51 44 77 S6 29.80F  
#BOARDMAN 3W N/A 52 47 83 S6 29.50S  
#BOARDMAN 8SW N/A 51 46 83 SW6 29.80S  
#IRRIGON 4NW N/A 53 46 77 S6 N/A  

 
 
ORZ507-010510-  
NORTHERN FOOTHILLS OF THE BLUES  
 
CITY SKY/WX TMP DP RH WIND PRES REMARKS
 
PENDLETON AIRPT CLOUDY 48 44 86 S8 29.81F  
 

 
 
ORZ508-010510-  
SOUTHERN FOOTHILLS OF THE BLUES  
 
CITY SKY/WX TMP DP RH WIND PRES REMARKS
 
LEXINGTON MOCLDY 48 45 89 SE3 29.84R  
 

 
 
ORZ502-503-010510-  
BLUE MOUNTAINS  
 
CITY SKY/WX TMP DP RH WIND PRES REMARKS
 
MEACHAM LGT RAIN 43 41 93 CALM 29.81F  
#BATTLE MTN DOT N/A 40 40 100 CALM N/A  
#HEPPNER 15SE N/A 41 38 89 CALM 29.69F  
#LADD CYN SMT N/A 42 39 89 W3 N/A  
#LADD CREEK ODOTN/A 44 43 96 W8 N/A  
#N POWDER DOT N/A 46 41 83 N13 N/A WCI 40  

 
 
ORZ505-010510-  
JOHN DAY BASIN  
 
CITY SKY/WX TMP DP RH WIND PRES REMARKS
 
JOHN DAY LGT RAIN 46 44 93 CALM 29.80F  
#WINLOCK N/A 46 44 93 CALM 29.90R  

 
 
ORZ506-010510-  
OCHOCO AND JOHN DAY HIGHLANDS  
 
CITY SKY/WX TMP DP RH WIND PRES REMARKS
 
#BUCK CREEK DOT N/A 44 44 100 NE3 N/A  
#HORSE RIDGE DO N/A 41 37 86 NW7 N/A  
#KEYES SMT DOT N/A 41 38 89 CALM N/A  

 
 
ORZ049-010510-  
GRANDE RONDE VALLEY  
 
CITY SKY/WX TMP DP RH WIND PRES REMARKS
 
LA GRANDE PTCLDY 46 37 71 NW9 29.77F  
#ELGIN 3N N/A 46 42 86 CALM 29.53F  
#IMBLER SCHOOL N/A 63 35 35 SW3 29.84S  
#LADD CYN DOT N/A 48 40 74 W8 N/A  

 
 
ORZ050-010510-  
WALLOWA COUNTY  
 
CITY SKY/WX TMP DP RH WIND PRES REMARKS
 
JOSEPH AIRPORT CLOUDY 45 41 86 CALM 29.81S  
#JOSEPH 3W N/A 44 41 89 CALM 29.66F  
 

 
 
CLICK HERE TO GO TO PREVIOUS BULLETINS.

The Nexlab OR Page
The Nexlab WA Page Main Text Page